Weather observations for the past three days for
Longville, Longville Municipal Airport
Imperial (Metric)
Date Time (cdt) Wind (mph) Vis. (mi.) Weather Sky Cond. Temperature (ºF) Relative Humidity Wind Chill (°F) Heat Index (°F) Pressure Precipitation (in)
Air Dwpt 6 hour altimeter (in) sea level (mb) 1 hr 3 hr 6 hr
Max. Min.
21 17:13 SE 5 10.00 Partly Cloudy SCT040 SCT050 78.8 66.2 65% 81 30.12 0.0
21 16:53 S 5 10.00 Fair CLR 78.8 66.2 65% 81 30.13 0.0
21 16:33 S 6 10.00 Partly Cloudy SCT030 78.8 66.2 65% 81 30.13 0.0
21 16:13 S 6 10.00 Partly Cloudy SCT030 78.8 66.2 65% 81 30.13 0.0
21 15:53 S 3 10.00 Partly Cloudy SCT030 SCT039 78.8 66.2 65% 81 30.13 0.0
21 15:33 Calm 10.00 Partly Cloudy SCT030 SCT037 78.8 64.4 61% 81 30.14 0.0
21 15:13 Calm 10.00 Fair CLR 78.8 66.2 65% 81 30.14 0.0
21 14:53 Calm 10.00 Fair CLR 78.8 64.4 61% 81 30.15 0.0
21 14:33 Calm 10.00 Fair CLR 77 64.4 65% 79 30.15 0.0
21 14:13 S 6 10.00 Fair CLR 77 66.2 69% 79 30.16 0.0
21 13:53 S 3 10.00 Fair CLR 77 64.4 65% 79 30.16 0.0
21 13:33 SE 5 10.00 Fair CLR 77 66.2 69% 79 30.17 0.0
21 13:13 SE 3 10.00 Fair CLR 75.2 66.2 74% 77 30.17 0.0
21 12:53 SE 5 10.00 Fair CLR 73.4 64.4 74% 30.18 0.0
21 12:33 SE 7 10.00 Partly Cloudy SCT014 73.4 64.4 74% 30.18 0.0
21 12:13 E 5 10.00 Partly Cloudy SCT014 73.4 64.4 74% 30.18 0.0
21 11:53 SE 5 10.00 Partly Cloudy SCT012 71.6 66.2 83% 30.18 0.0
21 11:33 SE 7 10.00 Partly Cloudy SCT010 71.6 64.4 78% 30.18 0.0
21 11:13 S 3 10.00 Overcast OVC010 69.8 64.4 83% 30.18 0.0
21 10:53 E 3 10.00 Overcast OVC008 69.8 64.4 83% 30.18 0.0
21 10:33 SE 6 10.00 Overcast OVC008 68 64.4 88% 30.18 0.0
21 10:13 E 3 10.00 Overcast OVC008 68 64.4 88% 30.18 0.0
21 09:53 S 3 10.00 Overcast OVC006 66.2 64.4 94% 30.18 0.0
21 09:33 SE 5 10.00 Overcast OVC006 66.2 62.6 88% 30.18 0.0
21 09:13 SE 5 10.00 Mostly Cloudy BKN006 66.2 62.6 88% 30.17 0.0
21 08:53 SE 3 7.00 Overcast OVC004 64.4 62.6 94% 30.18 0.0
21 08:33 E 3 5.00 Fog/Mist OVC004 64.4 62.6 94% 30.18 0.0
21 08:13 Calm 0.00 Fog/Mist OVC002 62.6 62.6 100% 30.18 0.0
21 07:53 Calm 0.00 Fog/Mist OVC002 62.6 62.6 100% 30.17 0.0
21 07:33 Calm 0.50 Fog OVC002 62.6 62.6 100% 30.17 0.0
21 07:13 Calm 0.50 Fog OVC002 62.6 62.6 100% 30.17 0.0
21 06:53 Calm 0.25 Fog OVC002 62.6 62.6 100% 30.16 0.0
21 06:33 Calm 1.25 Fog/Mist OVC002 62.6 60.8 94% 30.16 0.0
21 06:13 Calm 5.00 Fog/Mist SCT002 BKN055 62.6 60.8 94% 30.16 0.0
21 05:53 E 3 1.75 Fog/Mist OVC002 62.6 60.8 94% 30.16 0.0
21 05:33 Calm 3.00 Fog/Mist BKN002 62.6 60.8 94% 30.15 0.0
21 05:13 Calm 4.00 Fog/Mist SCT046 SCT050 62.6 60.8 94% 30.15 0.0
21 04:53 Calm 5.00 Fog/Mist BKN045 OVC050 62.6 60.8 94% 30.15 0.0
21 04:33 Calm 5.00 Fog/Mist BKN045 BKN050 62.6 60.8 94% 30.15 0.0
21 04:13 Calm 5.00 Fog/Mist CLR 62.6 60.8 94% 30.15 0.0
21 03:53 Calm 7.00 Fair CLR 62.6 60.8 94% 30.15 0.0
21 03:33 Calm 7.00 Fair CLR 62.6 60.8 94% 30.15 0.0
21 03:13 Calm 7.00 Fair CLR 62.6 62.6 100% 30.15 0.0
21 02:53 Calm 7.00 Fair CLR 62.6 62.6 100% 30.16 0.0
21 02:33 Calm 10.00 Fair CLR 64.4 62.6 94% 30.16 0.0
21 02:13 Calm 10.00 Fair CLR 64.4 62.6 94% 30.16 0.0
21 01:53 SE 3 10.00 Fair CLR 64.4 62.6 94% 30.15 0.0
21 01:33 E 3 10.00 Fair CLR 64.4 62.6 94% 30.15 0.0
21 01:13 E 5 7.00 Fair CLR 64.4 62.6 94% 30.15 0.0
21 00:53 Calm 5.00 Fog/Mist CLR 62.6 62.6 100% 30.13 0.0
21 00:33 Calm 7.00 Fair CLR 62.6 62.6 100% 30.13 0.0
21 00:13 Calm 7.00 Fair CLR 64.4 62.6 94% 30.12 0.0
20 23:53 Calm 5.00 Fog/Mist CLR 64.4 62.6 94% 30.11 0.0
20 23:33 Calm 10.00 Fair CLR 64.4 62.6 94% 30.12 0.0
20 23:13 Calm 10.00 Fair CLR 66.2 62.6 88% 30.13 0.0
20 22:53 Calm 10.00 Fair CLR 66.2 64.4 94% 30.13 0.0
20 22:33 SW 3 10.00 Partly Cloudy SCT085 69.8 64.4 83% 30.13 0.0
20 22:13 Calm 10.00 Partly Cloudy SCT060 SCT095 71.6 64.4 78% 30.13 0.0
20 21:53 Calm 10.00 Partly Cloudy SCT050 69.8 64.4 83% 30.14 0.0
20 21:33 Calm 10.00 Thunderstorm in Vicinity SCT050 71.6 64.4 78% 30.15 0.0
20 21:13 SE 6 10.00 Thunderstorm in Vicinity CLR 71.6 64.4 78% 30.14 0.0
20 20:53 SE 8 10.00 Fair CLR 71.6 64.4 78% 30.13 0.0
20 20:33 Calm 10.00 Partly Cloudy SCT100 73.4 69.8 89% 30.12 0.0
20 20:13 Calm 10.00 Thunderstorm in Vicinity SCT100 73.4 69.8 89% 30.11 0.0
20 19:53 Calm 10.00 Thunderstorm in Vicinity CLR 73.4 69.8 89% 30.1 0.0
20 19:33 Calm 10.00 Fair CLR 75.2 69.8 83% 75 30.1 0.0
20 19:13 Calm 10.00 Fair CLR 75.2 69.8 83% 75 30.1 0.0
20 18:53 Calm 10.00 Fair CLR 77 69.8 79% 79 30.1 0.0
20 18:33 Calm 10.00 Fair CLR 78.8 64.4 61% 81 30.1 0.0
20 18:13 Calm 10.00 Fair CLR 78.8 66.2 65% 81 30.1 0.0
20 17:53 NW 3 10.00 Fair CLR 80.6 64.4 58% 82 30.1 0.0
20 17:33 Calm 10.00 Fair CLR 80.6 64.4 58% 82 30.1 0.0
20 17:13 Calm 10.00 Fair CLR 80.6 64.4 58% 82 30.1 0.0
20 16:53 Calm 10.00 Fair CLR 80.6 64.4 58% 82 30.1 0.0
20 16:33 NW 5 10.00 Fair CLR 80.6 64.4 58% 82 30.1 0.0
20 16:13 Calm 10.00 Fair CLR 80.6 64.4 58% 82 30.1 0.0
20 15:53 NW 6 10.00 Fair CLR 80.6 64.4 58% 82 30.1 0.0
20 15:33 NW 5 10.00 Fair CLR 80.6 62.6 54% 82 30.1 0.0
20 15:13 NW 5 10.00 Fair CLR 80.6 62.6 54% 82 30.11 0.0
20 14:53 Calm 10.00 Fair CLR 80.6 62.6 54% 82 30.11 0.0
20 14:33 W 5 10.00 Fair CLR 80.6 64.4 58% 82 30.11 0.0
20 14:13 NW 8 10.00 Fair CLR 80.6 62.6 54% 82 30.12 0.0
20 13:53 NW 3 10.00 Fair CLR 80.6 62.6 54% 82 30.12 0.0
20 13:33 W 5 10.00 Fair CLR 80.6 62.6 54% 82 30.12 0.0
20 13:13 N 3 10.00 Thunderstorm in Vicinity CLR 80.6 60.8 51% 81 30.12 0.0
20 12:53 Calm 10.00 Fair CLR 80.6 60.8 51% 81 30.12 0.0
20 12:33 N 5 10.00 Fair CLR 80.6 62.6 54% 82 30.11 0.0
20 12:13 Calm 10.00 Fair CLR 80.6 62.6 54% 82 30.11 0.0
20 11:53 Calm 10.00 Fair CLR 80.6 62.6 54% 82 30.11 0.0
20 11:33 NW 3 10.00 Fair CLR 78.8 62.6 58% 80 30.11 0.0
20 11:13 NW 3 10.00 Fair CLR 78.8 62.6 58% 80 30.11 0.0
20 10:53 Calm 10.00 Fair CLR 78.8 62.6 58% 80 30.11 0.0
20 10:33 Calm 10.00 Fair CLR 78.8 64.4 61% 81 30.11 0.0
20 10:13 Calm 10.00 Partly Cloudy SCT046 77 64.4 65% 79 30.11 0.0
20 09:53 Calm 10.00 Partly Cloudy SCT046 75.2 64.4 69% 77 30.11 0.0
20 09:33 Calm 10.00 Fair CLR 75.2 66.2 74% 77 30.11 0.0
20 09:13 Calm 10.00 Fair CLR 73.4 66.2 78% 30.11 0.0
20 08:53 Calm 10.00 Partly Cloudy SCT060 71.6 66.2 83% 30.11 0.0
20 08:33 Calm 10.00 Mostly Cloudy SCT048 BKN060 69.8 66.2 88% 30.12 0.0
20 08:13 Calm 10.00 Overcast BKN048 OVC070 68 66.2 94% 30.12 0.0
20 07:53 Calm 10.00 Overcast OVC048 66.2 66.2 100% 30.11 0.0
20 07:33 Calm 5.00 Fog/Mist BKN050 64.4 64.4 100% 30.11 0.0
20 07:13 Calm 7.00 Fair CLR 62.6 60.8 94% 30.1 0.0
20 06:53 Calm 4.00 Fog/Mist SCT060 SCT075 60.8 60.8 100% 30.1 0.0
20 06:33 Calm 5.00 Fog/Mist OVC050 60.8 60.8 100% 30.1 0.0
20 06:13 Calm 4.00 Fog/Mist SCT001 BKN050 57.2 57.2 100% 30.09 0.0
20 05:53 Calm 3.00 Fog/Mist SCT001 SCT048 57.2 57.2 100% 30.09 0.0
20 05:33 Calm 0.75 Fog/Mist BKN001 57.2 57.2 100% 30.09 0.0
20 05:13 Calm 0.00 Fog/Mist BKN001 57.2 57.2 100% 30.08 0.0
20 04:53 Calm 0.50 Fog BKN001 57.2 57.2 100% 30.07 0.0
20 04:33 Calm 0.50 Fog BKN001 57.2 57.2 100% 30.06 0.0
20 04:13 Calm 1.50 Fog/Mist VV007 57.2 57.2 100% 30.06 0.0
20 03:53 Calm 0.00 Fog/Mist VV007 57.2 57.2 100% 30.06 0.0
20 03:33 Calm 2.00 Fog/Mist CLR 57.2 57.2 100% 30.06 0.0
20 03:13 Calm 0.00 Fog/Mist CLR 59 57.2 94% 30.06 0.0
20 02:53 Calm 0.75 Fog/Mist VV005 59 59 100% 30.06 0.0
20 02:33 Calm 4.00 Fog/Mist CLR 59 59 100% 30.07 0.0
20 02:13 Calm 0.00 Fog/Mist VV007 59 59 100% 30.07 0.0
20 01:53 Calm 3.00 Fog/Mist CLR 59 59 100% 30.07 0.0
20 01:33 Calm 7.00 Fair CLR 60.8 60.8 100% 30.08 0.0
20 01:13 Calm 5.00 Fog/Mist CLR 60.8 60.8 100% 30.08 0.0
20 00:53 Calm 7.00 Fair CLR 60.8 60.8 100% 30.08 0.0
20 00:33 Calm 7.00 Partly Cloudy SCT060 SCT070 60.8 60.8 100% 30.07 0.0
20 00:13 Calm 10.00 Mostly Cloudy BKN060 60.8 60.8 100% 30.08 0.0
19 23:53 Calm 7.00 Partly Cloudy SCT060 60.8 60.8 100% 30.08 0.0
19 23:33 Calm 5.00 Fog/Mist CLR 60.8 60.8 100% 30.07 0.0
19 23:13 Calm 5.00 Fog/Mist CLR 62.6 60.8 94% 30.07 0.0
19 22:53 Calm 10.00 Fair CLR 62.6 60.8 94% 30.07 0.0
19 22:33 Calm 7.00 Fair CLR 62.6 62.6 100% 30.07 0.0
19 22:13 Calm 10.00 Fair CLR 62.6 62.6 100% 30.07 0.0
19 21:53 Calm 10.00 Fair CLR 64.4 62.6 94% 30.07 0.0
19 21:33 Calm 10.00 Fair CLR 64.4 62.6 94% 30.06 0.0
19 21:13 Calm 10.00 Fair CLR 66.2 62.6 88% 30.06 0.0
19 20:53 Calm 10.00 Partly Cloudy SCT090 68 64.4 88% 30.05 0.0
19 20:33 Calm 10.00 Fair CLR 69.8 64.4 83% 30.05 0.0
19 20:13 Calm 10.00 Fair CLR 69.8 64.4 83% 30.06 0.0
19 19:53 Calm 10.00 Partly Cloudy SCT075 71.6 64.4 78% 30.05 0.0
19 19:33 Calm 10.00 Fair CLR 73.4 62.6 69% 30.06 0.0
19 19:13 Calm 10.00 Fair CLR 77 62.6 61% 79 30.05 0.0
19 18:53 Calm 10.00 Fair CLR 78.8 59 51% 80 30.05 0.0
19 18:33 Calm 10.00 Fair CLR 78.8 55.4 45% 79 30.05 0.0
19 18:13 Calm 10.00 Fair CLR 80.6 53.6 39% 80 30.05 0.0
19 17:53 SW 6 10.00 Fair CLR 80.6 57.2 45% 81 30.05 0.0
19 17:33 W 5 10.00 Fair CLR 80.6 57.2 45% 81 30.05 0.0
19 17:13 W 3 10.00 Fair CLR 80.6 57.2 45% 81 30.05 0.0
19 16:53 W 5 10.00 Fair CLR 80.6 57.2 45% 81 30.05 0.0
19 16:33 Calm 10.00 Fair CLR 80.6 55.4 42% 81 30.06 0.0
19 16:13 Calm 10.00 Fair CLR 80.6 57.2 45% 81 30.06 0.0
19 15:53 Calm 10.00 Fair CLR 80.6 55.4 42% 81 30.06 0.0
19 15:33 Calm 10.00 Fair CLR 80.6 55.4 42% 81 30.06 0.0
19 15:13 Calm 10.00 Fair CLR 80.6 55.4 42% 81 30.06 0.0
19 14:53 NW 5 10.00 Partly Cloudy SCT060 80.6 55.4 42% 81 30.06 0.0
19 14:33 W 3 10.00 Fair CLR 78.8 55.4 45% 79 30.07 0.0
19 14:13 SW 6 10.00 Fair CLR 78.8 55.4 45% 79 30.07 0.0
19 13:53 Calm 10.00 Fair CLR 78.8 55.4 45% 79 30.08 0.0
19 13:33 W 5 10.00 Partly Cloudy SCT050 77 55.4 47% 79 30.08 0.0
19 13:13 SW 5 10.00 Partly Cloudy SCT050 75.2 57.2 54% 78 30.09 0.0
19 12:53 SW 5 10.00 Fair CLR 77 57.2 51% 79 30.09 0.0
19 12:33 S 5 10.00 Fair CLR 78.8 57.2 48% 80 30.09 0.0
19 12:13 SW 5 10.00 Fair CLR 77 55.4 47% 79 30.09 0.0
19 11:53 SE 5 10.00 Fair CLR 75.2 57.2 54% 78 30.09 0.0
19 11:33 S 5 10.00 Fair CLR 75.2 55.4 50% 78 30.1 0.0
19 11:13 SW 5 10.00 Fair CLR 75.2 57.2 54% 78 30.09 0.0
19 10:53 S 3 10.00 Fair CLR 75.2 59 57% 78 30.09 0.0
19 10:33 Calm 10.00 Fair CLR 73.4 59 61% 30.09 0.0
19 10:13 S 3 10.00 Fair CLR 71.6 59 65% 30.09 0.0
19 09:53 S 5 10.00 Fair CLR 71.6 60.8 69% 30.1 0.0
19 09:33 SW 3 10.00 Fair CLR 71.6 60.8 69% 30.1 0.0
19 09:13 Calm 10.00 Fair CLR 69.8 59 69% 30.1 0.0
19 08:53 Calm 10.00 Fair CLR 66.2 59 78% 30.11 0.0
19 08:33 S 5 10.00 Fair CLR 66.2 59 78% 30.11 0.0
19 08:13 Calm 10.00 Fair CLR 64.4 59 83% 30.11 0.0
19 07:53 S 5 10.00 Fair CLR 62.6 57.2 83% 30.11 0.0
19 07:33 Calm 10.00 Fair CLR 60.8 59 94% 30.11 0.0
19 07:13 SE 3 10.00 Fair CLR 57.2 57.2 100% 30.11 0.0
19 06:53 Calm 10.00 Fair CLR 53.6 53.6 100% 30.11 0.0
19 06:33 Calm 10.00 Fair CLR 51.8 51.8 100% 30.1 0.0
19 06:13 Calm 7.00 Partly Cloudy SCT050 51.8 51.8 100% 30.1 0.0
19 05:53 Calm 10.00 Fair CLR 51.8 51.8 100% 30.11 0.0
19 05:33 SE 3 7.00 Fair CLR 51.8 51.8 100% 30.1 0.0
19 05:13 Calm 7.00 Fair CLR 51.8 51.8 100% 30.1 0.0
19 04:53 Calm 7.00 Fair CLR 51.8 51.8 100% 30.1 0.0
19 04:33 Calm 5.00 Fog/Mist CLR 51.8 51.8 100% 30.1 0.0
19 04:13 Calm 3.00 Fog/Mist CLR 51.8 51.8 100% 30.09 0.0
19 03:53 Calm 5.00 Fog/Mist CLR 51.8 51.8 100% 30.1 0.0
19 03:33 Calm 5.00 Fog/Mist CLR 51.8 51.8 100% 30.1 0.0
19 03:13 Calm 4.00 Fog/Mist CLR 53.6 51.8 94% 30.1 0.0
19 02:53 Calm 5.00 Fog/Mist CLR 51.8 51.8 100% 30.1 0.0
19 02:33 Calm 7.00 Fair CLR 53.6 51.8 94% 30.11 0.0
19 02:13 Calm 0.00 Fog/Mist CLR 53.6 53.6 100% 30.11 0.0
19 01:53 Calm 3.00 Fog/Mist CLR 53.6 53.6 100% 30.11 0.0
19 01:33 Calm 5.00 Fog/Mist CLR 53.6 53.6 100% 30.12 0.0
19 01:13 Calm 7.00 Fair CLR 53.6 53.6 100% 30.11 0.0
19 00:53 Calm 10.00 Fair CLR 55.4 53.6 94% 30.12 0.0
19 00:33 Calm 10.00 Fair CLR 55.4 55.4 100% 30.12 0.0
19 00:13 Calm 10.00 Fair CLR 55.4 55.4 100% 30.12 0.0
18 23:53 Calm 10.00 Fair CLR 55.4 55.4 100% 30.12 0.0
18 23:33 Calm 10.00 Fair CLR 55.4 55.4 100% 30.12 0.0
18 23:13 Calm 10.00 Fair CLR 57.2 55.4 94% 30.11 0.0
18 22:53 Calm 10.00 Fair CLR 57.2 55.4 94% 30.12 0.0
18 22:33 Calm 10.00 Fair CLR 57.2 55.4 94% 30.12 0.0
18 22:13 Calm 10.00 Fair CLR 59 55.4 88% 30.13 0.0
18 21:53 Calm 10.00 Partly Cloudy SCT050 60.8 55.4 83% 30.13 0.0
18 21:33 Calm 10.00 Fair CLR 60.8 55.4 83% 30.13 0.0
18 21:13 Calm 10.00 Fair CLR 62.6 57.2 83% 30.12 0.0
18 20:53 Calm 10.00 Fair CLR 62.6 57.2 83% 30.11 0.0
18 20:33 Calm 10.00 Fair CLR 68 59 73% 30.12 0.0
18 20:13 Calm 10.00 Fair CLR 71.6 55.4 57% 30.12 0.0
18 19:53 Calm 10.00 Fair CLR 73.4 53.6 50% 30.12 0.0
18 19:33 SW 6 10.00 Fair CLR 73.4 53.6 50% 30.13 0.0
18 19:13 SW 5 10.00 Fair CLR 73.4 51.8 47% 30.13 0.0
18 18:53 SW 5 10.00 Fair CLR 75.2 53.6 47% 78 30.13 0.0
18 18:33 SW 6 10.00 Fair CLR 75.2 53.6 47% 78 30.14 0.0
18 18:13 SW 6 10.00 Fair CLR 75.2 53.6 47% 78 30.15 0.0
18 17:53 SW 7 10.00 Fair CLR 75.2 53.6 47% 78 30.15 0.0
18 17:33 SW 5 10.00 Fair CLR 75.2 53.6 47% 78 30.15 0.0
Date Time (cdt) Wind (mph) Vis. (mi.) Weather Sky Cond. Air Dwpt Max. Min. Relative Humidity Wind Chill (°F) Heat Index (°F) altimeter (in) sea level (mb) 1 hr 3 hr 6 hr
6 hour
Temperature (ºF) Pressure Precipitation (in)